This is the latest recevied weather packets stored in our database for station/object WA1TYB-13. If no packets are shown the sender has not sent any weather packets the latest 10 day(s).
| Time | Temp. | Humidity | Pressure | Rain* | Wind** | Luminosity | Snow |
|---|---|---|---|---|---|---|---|
| 1787790288 | 26.67° C | 26% | 1021.6 hPa | 0 mm | - | 156 W/m² | - |
| 1787789983 | 26.67° C | 27% | 1021.6 hPa | 0 mm | - | 154 W/m² | - |
| 1787789678 | 26.11° C | 26% | 1021.7 hPa | 0 mm | - | 171 W/m² | - |
| 1787789373 | 26.11° C | 29% | 1021.8 hPa | 0 mm | - | 92 W/m² | - |
| 1787789067 | 25.56° C | 31% | 1021.5 hPa | 0 mm | - | 75 W/m² | - |
| 1787788764 | 26.11° C | 30% | 1021.4 hPa | 0 mm | - | 78 W/m² | - |
| 1787788459 | 26.11° C | 36% | 1021.1 hPa | 0 mm | - | 68 W/m² | - |
| 1787788154 | 26.11° C | 33% | 1020.8 hPa | 0 mm | - | 55 W/m² | - |
| 1787787849 | 25° C | 32% | 1020.8 hPa | 0 mm | - | 50 W/m² | - |
| 1787787548 | 23.89° C | 39% | 1020.6 hPa | 0 mm | - | 57 W/m² | - |
| 1787787243 | 23.89° C | 37% | 1020.6 hPa | 1.78 mm | - | 62 W/m² | - |
| 1787786942 | 24.44° C | 24% | 1020.6 hPa | 3.05 mm | - | 61 W/m² | - |
| 1787786638 | 23.89° C | 34% | 1020.6 hPa | 1.27 mm | - | 55 W/m² | - |
| 1787786332 | 24.44° C | 39% | 1020.4 hPa | 0 mm | - | 24 W/m² | - |
| 1787786029 | 28.89° C | 23% | 1020.6 hPa | 0 mm | - | 13 W/m² | - |
| 1787785728 | 28.89° C | 21% | 1020.3 hPa | 0 mm | - | 12 W/m² | - |
| 1787785423 | 28.89° C | 22% | 1020.3 hPa | 0 mm | - | 15 W/m² | - |
| 1787785122 | 29.44° C | 21% | 1020.6 hPa | 0 mm | - | 22 W/m² | - |
| 1787784818 | 28.89° C | 23% | 1019.9 hPa | 0 mm | - | 30 W/m² | - |
| 1787784517 | 29.44° C | 22% | 1020 hPa | 0 mm | - | 40 W/m² | - |
| 1787784211 | 30° C | 22% | 1019.9 hPa | 0 mm | - | 52 W/m² | - |
| 1787783907 | 30° C | 19% | 1019.8 hPa | 0 mm | - | 65 W/m² | - |
| 1787783603 | 30° C | 19% | 1019.9 hPa | 0 mm | - | 80 W/m² | - |
| 1787783302 | 30.56° C | 19% | 1019.9 hPa | 0 mm | - | 99 W/m² | - |
| 1787782999 | 30° C | 21% | 1019.8 hPa | 0 mm | - | 122 W/m² | - |
* Rain latest hour (hover to see other rain measurements)
** Current wind speed in m/s (hover to see current wind gust speed)